Terug naar catalogus

KUIPER-00210

ActiefCommunicatieLEO
NORAD 67146·PAYLOAD·🇺🇸 United States

Gelanceerd Dec 15, 2025 vanaf Cape Canaveral Space Force Station

Loading…

Volgende Passages (komende 24 uur)

TLE

VersSource: CelesTrak SupGP

Epoch: Sep 14, 2026, 22:10 UTC

1 67146C 25301P   26257.92407407  .00000857  00000+0  11219-3 0  2573
2 67146  51.8994 316.3055 0000428  81.8489 209.0710 14.79922016    18

Volg KUIPER-00210 in realtime met AllMySat

Download on the App Store